User: anonymous   Login
Location: Lafig�re
(44.4503°N, 4.0357°E)
Time: 04:16:10
(UTC+00:00)
Language:

Transit 2A Rocket - Orbit

View from above orbital plane
View from above orbital plane
View from above satellite
View from above satellite

Ground track
Ground track

The orbit data is extracted from the following two-line orbital elements,

1 00047U 60007C   21213.50139586  .00000009  00000-0  27148-4 0  9995
2 00047  66.6660 138.5526 0227334   1.3175 358.8478 14.42163608193800
Epoch (UTC): 01 August 2021 12:02:00
Eccentricity: 0.0227334
inclination: 66.6660°
perigee height: 589 km
apogee height: 913 km
right ascension of ascending node: 138.5526°
argument of perigee: 1.3175°
revolutions per day: 14.42163608
mean anomaly at epoch: 358.8478°
orbit number at epoch: 19380

The dashed part of the orbit path shows where the satellite is in the earth's shadow,  

DLR